{"data":{"norad_id":58978,"epoch":"2026-05-24T22:10:59.582208Z","epoch_age_seconds":88403,"freshness":"FRESH","line1":"1 58978U 24031P   26144.92430072  .00001914  00000+0  76723-4 0  9994","line2":"2 58978  53.1611 302.6881 0001061  90.8172 269.2950 15.30198177128184","mean_motion":15.30198177,"eccentricity":0.0001061,"inclination_deg":53.1611,"raan_deg":302.6881,"arg_perigee_deg":90.8172,"mean_anomaly_deg":269.295,"bstar":7.6723e-5,"rev_number":12818,"period_min":94.105457818749,"perigee_km":474.49337134205,"apogee_km":475.94765380621,"semimajor_km":6853.3575125741,"source":"CELESTRAK","updated_at":"2026-05-25T13:38:18.795869Z"}}